BREEZE-KM DEB, 41718

Orbit data source: Space-Track

BREEZE-KM DEB, 41718 is space debris in LEO originally from a launch on Tue, 31 Mar 2015 UTC launched from the Plesetsk Missile And Space Complex (PKMTR). Debris objects in space refer to the collection of defunct objects orbiting the Earth. Examples of debris include non-operational satellites, rocket bodies, and fragments generated from explosions, collisions, or faulty payload assembly.

Loading next visibility...
Identifier
41718, 2015-020F
Orbit
LEO
Country
Flag of CISCIS
Related business
Manufacturer
Khrunichev
Mission
Spacecraft
Bus & Motor
Unknown
Mass
Unknown
Launch date (UTC)
2015-03-31 (11 years ago)
Launch vehicle
Unknown
Launch site
Plesetsk Missile And Space Complex (PKMTR)
Object type
Payload
Rocket body
Debris
Shape & HBR
Unknown shape, 0.1 m
Radar Cross Section
Medium (>0.1 m² and <1 m²)

Expand to show TLE details & history
Last TLE update: 4 days ago

TLE from 4 days ago
0 BREEZE-KM DEB
1 41718U 15020F   26192.57572040  .00000038  00000-0  87529-4 0  9995
2 41718  82.4900 135.7695 0228380 176.5755 183.6983 12.91314130523037
Epoch: 2026-07-11T13:49Z
TLE epoch observation values (Epoch: 2026-07-11T13:49:02.242Z)
Latitude
-0.00004°
Longitude
-0.97681°
Altitude
1,474.035 km
Speed
7.044 km/s
True Right ascension
09h 03m 04s
True Declination
0° 00' 00"
Sunlit
Object was in daylight at epoch
Visualization orbit readout
Latitude
Unknown
Longitude
Unknown
Altitude
Unknown
Speed
Unknown
Apparent Right ascension
Unknown
Apparent Declination
Unknown
Sunlit
N/A
Visualization observer readout
Local Sidereal Time
05:55:13
Azimuth
Unknown
Elevation
Unknown
Doppler factor
Unknown
Orbital elements
Apogee altitude
1,468.801 km
Perigee altitude
1,118.387 km
Semi-major axis
7,671.731 km
Eccentricity
0.02284
Inclination
82.49°
RAAN
135.7695°
Arg. of periapsis
176.5755°
True anomaly
183.53417°
Mean anomaly
183.6983°
Eccentric anomaly
183.61578°
Mean motion
3.23 °/min
Orbital period
111.45 mins
BSTAR
0.000087529
Loading maneuver chart data...
Computing Atmospheric mass density...
Loading historical data...
Loading historical data...
Loading historical data...
Loading historical data...
Loading historical data...
Loading historical data...
Loading historical data...

Documentation

Showing up to 5 results
|